Home   Weather   Niš   Past weeks

Flag for Serbia Past Weather in Niš, Serbia — Yesterday and Last 2 Weeks

Now
45 °F

Passing clouds.


Feels Like: 43 °F
Forecast: 42 / 73 °F
Wind: 3 mph from Southwest

Location: Nis Airport

Current Time: Apr 25, 2017 at 8:45:16 am

Latest Report: Apr 25, 2017 at 8:00 am


Visibility: N/A

Pressure: 30.15 "Hg

Humidity: 81%

Dew Point: 39 °F

Location of NišLocation

Past Weather in Niš — Graph

°F

Niš Temperature Yesterday

Maximum temperature yesterday: 61 °F (at 4:00 pm)
Minimum temperature yesterday: 34 °F (at 2:30 am)
Average temperature yesterday: 47 °F

High & Low Weather Summary for the Past Weeks

 TemperatureHumidityPressure
High75 °F (Apr 11, 3:30 pm)100% (Apr 11, 4:00 am)30.30 "Hg (Apr 11, 4:00 am)
Low28 °F (Apr 22, 3:30 am)23% (Apr 10, 4:00 pm)29.71 "Hg (Apr 19, 1:30 am)
Average49 °F70%30.02 "Hg
* Reported Apr 10 8:00 am — Apr 25 8:00 am, Niš, Weather by CustomWeather, © 2017

Note: Actual official high and low records may vary slightly from our data, if they occured in-between our weather recording intervals... More about our weather records

Advertising

Niš Weather History for the Previous 24 Hours

Scroll right to see more
 ConditionsComfort  
Time TempWeatherWind HumidityBarometerVisibility
8:00 am
Tue, Apr 25
45 °FPassing clouds.3 mph81%30.15 "HgN/A
7:30 am41 °FSunny.2 mph87%30.15 "Hg10 mi
7:00 am39 °FPassing clouds.6 mph93%30.15 "HgN/A
6:30 am36 °FPassing clouds.5 mph93%30.15 "HgN/A
6:00 am34 °FPassing clouds.3 mph93%30.15 "HgN/A
5:30 am37 °FClear.2 mph87%30.15 "Hg10 mi
5:00 am37 °FClear.2 mph93%30.12 "Hg10 mi
4:30 am37 °FPassing clouds.3 mph93%30.12 "HgN/A
4:00 am37 °FPassing clouds.3 mph87%30.12 "HgN/A
3:00 am37 °FClear.1 mph93%30.15 "Hg10 mi
2:30 am41 °FPassing clouds.3 mph81%30.15 "HgN/A
2:00 am41 °FClear.2 mph81%30.15 "Hg10 mi
1:30 am41 °FClear.2 mph81%30.15 "Hg10 mi
1:00 am39 °FPassing clouds.3 mph87%30.15 "HgN/A
12:30 am43 °FClear.2 mph71%30.15 "Hg10 mi
12:00 am45 °FClear.3 mph71%30.15 "Hg10 mi
11:30 pm
Mon, Apr 24
45 °FPassing clouds.3 mph71%30.15 "HgN/A
11:00 pm43 °FClear.3 mph76%30.15 "Hg10 mi
10:30 pm46 °FClear.6 mph62%30.15 "Hg10 mi
10:00 pm46 °FClear.5 mph66%30.15 "Hg10 mi
9:30 pm48 °FClear.6 mph62%30.15 "Hg10 mi
9:00 pm50 °FClear.3 mph58%30.15 "Hg10 mi
8:30 pm50 °FPassing clouds.7 mph58%30.15 "HgN/A
8:00 pm52 °FClear.5 mph54%30.12 "Hg10 mi
7:30 pm57 °FClear.2 mph39%30.12 "Hg10 mi
7:00 pm59 °FPassing clouds.3 mph34%30.12 "HgN/A
6:30 pm59 °FSunny.2 mph34%30.12 "Hg10 mi
6:00 pm59 °FPassing clouds.3 mph34%30.15 "HgN/A
5:30 pm61 °FSunny.2 mph34%30.15 "Hg10 mi
5:00 pm61 °FPassing clouds.2 mph34%30.15 "HgN/A
4:30 pm61 °FPassing clouds.5 mph34%30.15 "HgN/A
4:00 pm61 °FPassing clouds.3 mph34%30.15 "HgN/A
3:30 pm59 °FPassing clouds.5 mph36%30.18 "HgN/A
3:00 pm59 °FPassing clouds.3 mph34%30.18 "HgN/A
2:00 pm59 °FPassing clouds.3 mph39%30.21 "HgN/A
1:30 pm57 °FPassing clouds.6 mph41%30.21 "HgN/A
1:00 pm57 °FPassing clouds.2 mph39%30.24 "HgN/A
12:30 pm55 °FPassing clouds.5 mph41%30.24 "HgN/A
12:00 pm55 °FPassing clouds.3 mph41%30.24 "HgN/A
11:30 am54 °FPassing clouds.3 mph51%30.27 "HgN/A
11:00 am52 °FPassing clouds.3 mph50%30.27 "HgN/A
10:30 am50 °FPassing clouds.5 mph62%30.27 "HgN/A
10:00 am46 °FPassing clouds.2 mph71%30.27 "HgN/A
9:30 am46 °FPassing clouds.3 mph71%30.27 "HgN/A
9:00 am43 °FPassing clouds.2 mph81%30.27 "HgN/A
8:30 am41 °FPassing clouds.2 mph81%30.27 "HgN/A
8:00 am39 °FPassing clouds.3 mph81%30.27 "HgN/A
Weather by CustomWeather, © 2017

See weather overviewHow to use our weather pages